Regional Weather Roundup
Issued by NWS

Home | Current Version | Previous Version | Text Only | Print | Product List | Glossary Off
Versions: 1 2 3 4 5 6 7 8 9 10 11 12 13 14 15 16 17 18 19 20 21 22 23 24 25 26 27 28 29 30 31 32 33 34 35 36 37 38 39 40 41 42 43 44 45 46 47 48 49 50

328
ASUS44 KJAN 010910
RWRMS

MISSISSIPPI HOURLY WEATHER ROUNDUP
NATIONAL WEATHER SERVICE JACKSON MS
400 AM CDT FRI AUG 01 2014

NOTE: "FAIR: INDICATES FEW OR NO CLOUDS BELOW 12,000 FEET WITH NO
SIGNIFICANT WEATHER AND/OR OBSTRUCTIONS TO VISIBILITY.

MSZ001>002-007>008-010>013-018>021-025>028-034>036-011000-
NORTHWEST MISSISSIPPI

CITY           SKY/WX    TMP DP  RH WIND       PRES   REMARKS
CLARKSDALE     CLOUDY    68  68 100 CALM      30.03F
CLEVELAND      PTSUNNY   69  69  98 CALM      30.01S
GREENWOOD      PTCLDY    68  67  96 N3        30.01F FOG
GREENVILLE     CLOUDY    71  68  90 CALM      30.01S
GRENADA        FAIR      70  66  88 CALM      30.02F
OLIVE BRANCH   MOCLDY    70  70 100 N5        30.05S
OXFORD         FAIR      68  66  94 CALM      30.05F
TUNICA         CLOUDY    68  64  88 N7        30.04F
$$

MSZ003>006-009-014>017-022>024-029>033-037>039-011000-
NORTHEAST MISSISSIPPI

CITY           SKY/WX    TMP DP  RH WIND       PRES   REMARKS
BELMONT        FAIR      64  63  97 CALM      30.04F
COLUMBUS AFB   CLOUDY    67  67  99 N1        30.02S
CORINTH        FAIR      66  64  94 CALM      30.04S
GOLDN TRIANGLE MOCLDY    66  61  82 N3        30.02S
STARKVILLE     FAIR      66  64  94 CALM      30.02S
TUPELO         CLOUDY    69  65  86 N5        30.03S
$$

MSZ040-058-011000-
CENTRAL MISSISSIPPI

CITY           SKY/WX    TMP DP  RH WIND       PRES   REMARKS
JACKSON INTL   CLOUDY    73  65  75 CALM      30.00F
JACKSON HAWKNS CLOUDY    74  62  66 CALM      30.01S
MERIDIAN KEY   PTCLDY    66  63  90 CALM      30.01R
MERIDIAN NAS   PTCLDY    66  63  90 CALM      30.01S
RAYMOND        PTSUNNY   72  66  83 CALM      30.00S
VICKSBURG      CLOUDY    73  68  84 E6        29.98F
$$

MSZ059>079-011000-
SOUTH MISSISSIPPI

CITY           SKY/WX    TMP DP  RH WIND       PRES   REMARKS
BROOKHAVEN     DRIZZLE   70  68  94 CALM      30.02R
COLUMBIA       DRIZZLE   70  70 100 CALM      29.98S
HATTIESBURG    LGT RAIN  72  69  90 CALM      29.99F
MCCOMB         CLOUDY    72  65  78 E3        29.99F
NATCHEZ        CLOUDY    72  64  78 E6        29.98F
PINE BELT      CLOUDY    70  64  83 CALM      30.01S
$$

MSZ080>082-011000-
COASTAL MISSISSIPPI

CITY           SKY/WX    TMP DP  RH WIND       PRES   REMARKS
BILOXI         CLOUDY    74  67  78 NE6       29.97F
PASCAGOULA     MOCLDY    70  68  93 CALM      29.97F
GULFPORT       MOCLDY    77  66  68 NE3       29.97F
$$



USA.gov is the U.S. government's official web portal to all federal, state and local government web resources and services.